Preview of NWS' New Version of Forecast
This preview is not operational and should not be used for support decisions.

Regional Weather Roundup (RWR)

Issued by National Weather Service (NWS)

                            
000
ASUS45 KBOU 220710
RWRCO 

WEATHER ROUNDUP FOR COLORADO
NATIONAL WEATHER SERVICE DENVER/BOULDER CO
100 AM MDT MON APR 22 2019

NOTE: "FAIR" INDICATES FEW OR NO CLOUDS BELOW 12000 FEET WITH NO
SIGNIFICANT WEATHER AND/OR OBSTRUCTIONS TO VISIBILITY.

COZ001>005-013-030-031-220800-
...NORTHWEST COLORADO...
  
CITY           SKY/WX    TMP DP  RH WIND       PRES   REMARKS
CRAIG          FAIR      34  33  96 W6        30.07R WCI  29          
HAYDEN         FAIR      41  36  82 SE6       30.08S                  
MEEKER         FAIR      38  34  85 CALM      30.06S                  
RANGELY        FAIR      38  36  93 CALM      30.05R                  
RABBIT EARS PA FAIR      30  30 100 SE7       30.19R WCI  23          
STEAMBOAT SPGS FAIR      39  37  90 CALM      30.08S                  
WALDEN         CLOUDY    36  34  93 W5        30.15R                  
$$

COZ006>008-011-220800-
...WEST CENTRAL VALLEYS...
  
CITY           SKY/WX    TMP DP  RH WIND       PRES   REMARKS
GRAND JUNCTION FAIR      48  39  71 CALM      29.96R                  
MONTROSE       FAIR      47  24  40 SE7       30.01R                  
EAGLE          FAIR      36  30  79 S3        30.11R                  
RIFLE          FAIR      41  36  82 SE7       30.03R                  
DELTA          FAIR      47  34  60 N5        29.98R                  
NUCLA          MOCLDY    46  19  34 E9        30.01R                  
$$

COZ017>023-064>068-220800-
...SOUTHWEST COLORADO...
  
CITY           SKY/WX    TMP DP  RH WIND       PRES   REMARKS
DURANGO        FAIR      44  23  43 NE3       30.04R                  
CORTEZ         FAIR      37  24  59 CALM      30.00R                  
PAGOSA SPRINGS FAIR      42  26  51 CALM      30.10R                  
TELLURIDE      CLOUDY    41  19  42 SE6       30.14R                  
WOLF CREEK PAS CLOUDY    30  19  64 S9        30.30S WCI  22          
$$

COZ009-010-012-014-032>034-037-058>063-220800-
...CENTRAL COLORADO...
  
CITY           SKY/WX    TMP DP  RH WIND       PRES   REMARKS
ASPEN          FAIR      31  25  78 SW3       30.09R                  
BUENA VISTA    FAIR      38  23  54 CALM      30.14R                  
COPPER MTN     FAIR      34  18  51 S12       30.25R WCI  25          
BERTHOUD PASS  FAIR      27  16  63 W16       30.27R WCI  14          
COTTONWOOD PAS FAIR      41  21  45 CALM      30.20R                  
GUNNISON       FAIR      37  27  67 N3        30.11R                  
GRANBY         FAIR      32  31  94 E3        30.16R                  
KREMMLING      FAIR      34  32  93 CALM      30.14R                  
LEADVILLE      MOCLDY    28  19  69 CALM      30.17R                  
MONARCH PASS   FAIR      30  19  64 E13       30.36S WCI  20          
SALIDA         MOCLDY    40  24  53 SW5       30.20R                  
SUNLIGHT       FAIR      30  25  80 E6        30.22F WCI  24          
WILKERSON PASS CLOUDY    32  21  64 CALM      30.26S                  
$$

COZ069>075-220800-
...SAN LUIS VALLEY/SANGRE DE CRISTO MOUNTAINS...
  
CITY           SKY/WX    TMP DP  RH WIND       PRES   REMARKS
ALAMOSA        FAIR      41  23  48 SE8       30.08S                  
DEL NORTE      FAIR      42  23  46 W6        30.10S                  
LA VETA PASS   NOT AVBL                                               
SAGUACHE       MOCLDY    37  16  41 CALM      30.11R                  
$$

COZ035-036-038>040-220800-
...NORTHERN COLORADO FRONT RANGE...
  
CITY           SKY/WX    TMP DP  RH WIND       PRES   REMARKS
DENVER INTL AP CLOUDY    46  45  96 N9        30.13R                  
AURORA         CLOUDY    46  45  98 N9        30.14R                  
FRONT RANGE AP CLOUDY    47  46  95 N8        30.13R                  
ERIE MUNI ARPT CLOUDY    46  43  87 N9        30.19R                  
BOULDER MUN AP CLOUDY    45  43  93 NE5       30.13R                  
CENTENNIAL     CLOUDY    47  42  83 N10       30.14R                  
BROOMFIELD     CLOUDY    45  43  93 N10       30.15R                  
FORT COLLINS   LGT RAIN  46  42  86 N10       30.13R                  
LONGMONT       CLOUDY    48  43  81 NE3       30.15R                  
$$

COZ041-046-047-076>085-087-088-220800-
...PIKES PEAK/PALMER DIVIDE AND SOUTHERN FOOTHILLS...
  
CITY           SKY/WX    TMP DP  RH WIND       PRES   REMARKS
COLO. SPRINGS  FAIR      48  37  65 NW12      30.08R                  
A. F. ACADEMY  FAIR      43  38  82 N13       30.08F                  
SCHRIEVER AFB  NOT AVBL                                               
CHEYENNE MTN   FAIR      44  37  77 S13       30.06R                  
ELLICOTT         N/A    N/A N/A N/A N14       30.08R                  
FALCON         FAIR      42  38  86 N20G30    30.10R                  
FORT CARSON    FAIR      49  38  67 S6        30.10R                  
LIMON          CLOUDY    44  44 100 N15       30.10R                  
MONUMENT HILL  CLOUDY    39  37  93 N12G17    30.14F                  
CANON CITY     FAIR      48  41  76 E5        30.09R                  
WALSENBURG     NOT AVBL                                               
TRINIDAD       FAIR      41  34  76 NW9       30.10R                  
$$

COZ042>045-048>051-090-091-220800-
...NORTHEAST COLORADO...
  
CITY           SKY/WX    TMP DP  RH WIND       PRES   REMARKS
GREELEY ARPT   FAIR      46  43  89 N9        30.14R                  
AKRON          CLOUDY    44  40  85 N24G35    30.09R                  
BURLINGTON     CLOUDY    48  44  86 N23G32    30.04R                  
WRAY           CLOUDY    48  43  81 N21G28    30.06R                  
YUMA           NOT AVBL                                               
STERLING       MOCLDY    45  41  87 N12       30.10R                  
HOLYOKE        CLOUDY    46  43  87 N16G28    30.06R                  
FORT MORGAN    NOT AVBL                                               
$$

COZ086-089-092>099-220800-
...SOUTHEAST COLORADO...
  
CITY           SKY/WX    TMP DP  RH WIND       PRES   REMARKS
PUEBLO         FAIR      49  41  74 SE6       30.07R                  
LA JUNTA       FAIR      47  41  80 NW6       30.08R                  
LAMAR          MOCLDY    51  44  77 N9        30.04R                  
SPRINGFIELD      N/A     47  42  83 NW15      30.03R                  
$$